Dubuque, IA

1:25 AM CDT on April 24, 2017 (GMT -0500)
Dubuque Regional

Weather History for KDBQ - March, 2014

Change the Weather History Date:

Saturday, March 22, 2014

  Actual Average Record
Temperature  
Mean Temperature 27 °F 38 °F  
Max Temperature 34 °F 47 °F 73 °F (1938)
Min Temperature 19 °F 29 °F -5 °F (1888)
Degree Days  
Heating Degree Days 38 27  
Month to date heating degree days 872 694  
Since 1 July heating degree days 7248 6087  
Cooling Degree Days 0 0  
Month to date cooling degree days 0 0  
Year to date cooling degree days 0 0  
Moisture  
Dew Point 18 °F    
Average Humidity 61    
Maximum Humidity 78    
Minimum Humidity 43    
Precipitation  
Precipitation 0.00 in 0.09 in 1.05 in (1966)
Month to date precipitation 0.77 1.59  
Year to date precipitation 3.25 4.20  
Snow  
Snow 0.00 in 0.20 in - ()
Month to date snowfall 10.2 4.9  
Since 1 July snowfall 61.9 38.5  
Snow Depth 0.00 in    
Sea Level Pressure  
Sea Level Pressure 30.23 in    
Wind  
Wind Speed 16 mph (NW)    
Max Wind Speed 24 mph    
Max Gust Speed 28 mph    
Visibility 10 miles    
Events      
T = Trace of Precipitation, MM = Missing Value Source: NWS Daily Summary

Daily Weather History Graph

Daily Weather History Graph

Search for Another Location

Airport or City:

Trip Planner

Search our weather history database for the weather conditions in past years. The results will help you decide how hot, cold, wet, or windy it might be!

Date:

Astronomy

Mar. 22, 2014 Rise Set
Actual Time 7:02 AM CDT 7:17 PM CDT
Civil Twilight 6:34 AM CDT 7:45 PM CDT
Nautical Twilight 6:01 AM CDT 8:18 PM CDT
Astronomical Twilight 5:28 AM CDT 8:52 PM CDT
Moon 12:42 AM CDT (3/22) 10:40 AM CDT (3/22)
Length of Visible Light 13h 10m
Length of Day
12h 14m
Waning Gibbous, 65% of the Moon is Illuminated
Mar 22
Waning Gibbous
Mar 23
Last Quarter
Mar 30
New
Apr 7
First Quarter
Apr 15
Full

Hourly Weather History & Observations

Time (CDT) Temp. Windchill Dew Point Humidity Pressure Visibility Wind Dir Wind Speed Gust Speed Precip Events Conditions
12:53 AM 33.1 °F 22.2 °F 27.0 °F 78% 30.01 in 10.0 mi NW 17.3 mph 25.3 mph N/A   Mostly Cloudy
1:04 AM 34.0 °F 23.4 °F 27.0 °F 75% 29.99 in 10.0 mi NW 17.3 mph - N/A   Overcast
1:53 AM 34.0 °F 22.7 °F 26.1 °F 73% 30.02 in 10.0 mi NNW 19.6 mph - N/A   Overcast
2:53 AM 34.0 °F 23.4 °F 26.1 °F 73% 30.04 in 10.0 mi NNW 17.3 mph 25.3 mph N/A   Overcast
3:53 AM 33.1 °F 23.0 °F 25.0 °F 72% 30.07 in 10.0 mi NW 15.0 mph 25.3 mph N/A   Overcast
4:53 AM 33.1 °F 23.9 °F 25.0 °F 72% 30.10 in 10.0 mi NW 12.7 mph - N/A   Overcast
5:53 AM 32.0 °F 22.1 °F 24.1 °F 73% 30.12 in 10.0 mi NW 13.8 mph - N/A   Overcast
6:53 AM 30.0 °F 19.5 °F 24.1 °F 79% 30.16 in 10.0 mi NW 13.8 mph - N/A   Overcast
7:53 AM 28.0 °F 17.0 °F 21.9 °F 78% 30.21 in 10.0 mi NW 13.8 mph - N/A   Overcast
8:53 AM 28.0 °F 18.1 °F 21.0 °F 75% 30.23 in 10.0 mi NNW 11.5 mph - N/A   Overcast
9:53 AM 27.0 °F 15.6 °F 19.9 °F 75% 30.26 in 10.0 mi North 13.8 mph - N/A   Overcast
10:53 AM 28.9 °F 17.7 °F 18.0 °F 64% 30.28 in 10.0 mi NNW 15.0 mph - N/A   Mostly Cloudy
11:12 AM 28.9 °F 18.2 °F 18.0 °F 64% 30.25 in 10.0 mi NW 13.8 mph - N/A   Scattered Clouds
11:19 AM 28.0 °F 17.0 °F 18.0 °F 66% 30.25 in 10.0 mi NNW 13.8 mph - N/A   Mostly Cloudy
11:37 AM 28.0 °F 17.5 °F 17.1 °F 63% 30.25 in 10.0 mi NNW 12.7 mph - N/A   Scattered Clouds
11:53 AM 28.9 °F 18.6 °F 17.1 °F 61% 30.30 in 10.0 mi NW 12.7 mph - N/A   Clear
12:53 PM 30.9 °F 19.8 °F 16.0 °F 54% 30.29 in 10.0 mi NW 16.1 mph 20.7 mph N/A   Clear
1:53 PM 32.0 °F 20.5 °F 12.9 °F 45% 30.29 in 10.0 mi NNW 18.4 mph 23.0 mph N/A   Clear
2:53 PM 33.1 °F 22.6 °F 14.0 °F 46% 30.29 in 10.0 mi NW 16.1 mph 24.2 mph N/A   Clear
3:53 PM 33.1 °F 23.4 °F 15.1 °F 48% 30.29 in 10.0 mi NW 13.8 mph - N/A   Clear
4:53 PM 30.0 °F 16.9 °F 12.0 °F 47% 30.31 in 10.0 mi NW 21.9 mph - N/A   Clear
5:53 PM 28.0 °F 15.3 °F 10.9 °F 49% 30.33 in 10.0 mi NW 18.4 mph 26.5 mph N/A   Clear
6:53 PM 25.0 °F 10.9 °F 10.0 °F 53% 30.35 in 10.0 mi NW 19.6 mph - N/A   Clear
7:53 PM 24.1 °F 9.8 °F 10.0 °F 55% 30.35 in 10.0 mi NNW 19.6 mph - N/A   Clear
8:53 PM 23.0 °F 10.1 °F 10.0 °F 58% 30.38 in 10.0 mi NNW 15.0 mph - N/A   Clear
9:53 PM 21.9 °F 8.2 °F 9.0 °F 58% 30.40 in 10.0 mi NNW 16.1 mph - N/A   Clear
10:53 PM 21.0 °F 8.1 °F 9.0 °F 60% 30.42 in 10.0 mi NNW 13.8 mph - N/A   Clear
11:53 PM 19.9 °F 7.3 °F 8.1 °F 60% 30.43 in 10.0 mi NNW 12.7 mph - N/A   Clear